BADR-5

Last updated on Wed Oct 22 2025 00:02:47 GMT+0000 (Coordinated Universal Time)

1 36592U 10025A 25294.55582003 .00000152 00000+0 00000+0 0 9999 2 36592 0.0510 113.1844 0004982 76.4615 66.7145 1.00271079 50828
UTC large
Height (km)
Speed (km/s)
/
Latitude / Longitude
Inclination (degrees)
Orbital Period (minutes)
Azimuth
Elevation
Range (km)
Doppler Factor

Next 0 passes for location: London (51.5072 / 0.1276)

Sorry there are no passes over London.